Location: Kumla
(59.1265°N, 15.1401°E)
Time: 19:11:43
(UTC+01:00)

A-11 Canister half - Pass Details

Date: 11 December 2023
Orbit: 1526 x 1682 km, 47.3° (Epoch: 21 February)

Event Time Altitude Azimuth Distance (km) Brightness Sun altitude
Rises 16:58:43 0° 205° (SSW) 4,910 12.4 -13.0°
Reaches altitude 10° 17:02:35 10° 193° (SSW) 3,934 11.6 -13.5°
Maximum altitude 17:10:12 25° 143° (SE) 2,913 10.3 -14.4°
Enters shadow 17:16:36 13° 99° (E) 3,668 10.5 -15.2°
